• In Hungary
  • List of Countries
  • For 7 days
  • Water Temperature
  • Satellite Maps
  • Weather Map
  • News
  • Weather Widgets
  • user-avatar
    Login

    Hourly Weather Smolyanka

    Today, 18 July, Wednesday

    Time Temperature Precipitation Wind Pressure Humidity
    00:00 +18°C° 0 mm 2 mps 751 mmHg 87%
    01:00 +17°C° 0 mm 2 mps 751 mmHg 86%
    02:00 +17°C° 0 mm 2 mps 751 mmHg 86%
    03:00 +16°C° 0 mm 2 mps 751 mmHg 87%
    04:00 +16°C° 0 mm 2 mps 752 mmHg 86%
    05:00 +17°C° 0 mm 2 mps 752 mmHg 82%
    06:00 +18°C° 0 mm 3 mps 752 mmHg 78%
    07:00 +19°C° 0 mm 3 mps 752 mmHg 74%
    08:00 +21°C° 0 mm 3 mps 752 mmHg 68%
    09:00 +24°C° 0 mm 3 mps 752 mmHg 62%
    10:00 +25°C° 0 mm 4 mps 752 mmHg 57%
    11:00 +26°C° 0 mm 4 mps 752 mmHg 53%
    12:00 +28°C° 0 mm 3 mps 752 mmHg 48%
    13:00 +29°C° 0 mm 3 mps 752 mmHg 44%
    14:00 +29°C° 0 mm 3 mps 751 mmHg 44%
    15:00 +29°C° 0 mm 3 mps 751 mmHg 45%
    16:00 +29°C° 0 mm 4 mps 752 mmHg 42%
    17:00 +28°C° 0 mm 4 mps 752 mmHg 45%
    18:00 +28°C° 0 mm 3 mps 752 mmHg 47%
    19:00 +27°C° 0 mm 3 mps 752 mmHg 49%
    20:00 +25°C° 0 mm 3 mps 752 mmHg 54%
    21:00 +24°C° 0 mm 3 mps 752 mmHg 58%
    22:00 +21°C° 0 mm 3 mps 752 mmHg 62%
    23:00 +20°C° 0 mm 3 mps 752 mmHg 64%

    Tomorrow, 19 July, Thursday

    Time Temperature Precipitation Wind Pressure Humidity
    00:00 +19°C° 0 mm 3 mps 752 mmHg 66%
    01:00 +18°C° 0 mm 3 mps 753 mmHg 69%
    02:00 +18°C° 0 mm 3 mps 753 mmHg 70%
    03:00 +18°C° 0 mm 3 mps 753 mmHg 71%
    04:00 +17°C° 0 mm 3 mps 753 mmHg 73%
    05:00 +18°C° 0 mm 3 mps 753 mmHg 69%
    06:00 +19°C° 0 mm 3 mps 753 mmHg 66%
    07:00 +20°C° 0 mm 3 mps 753 mmHg 62%
    08:00 +22°C° 0 mm 3 mps 753 mmHg 57%
    09:00 +24°C° 0 mm 3 mps 753 mmHg 51%
    10:00 +26°C° 0 mm 4 mps 753 mmHg 45%
    11:00 +27°C° 0 mm 3 mps 753 mmHg 43%
    12:00 +28°C° 0 mm 3 mps 753 mmHg 41%
    13:00 +28°C° 0 mm 3 mps 753 mmHg 39%
    14:00 +28°C° 0 mm 3 mps 753 mmHg 39%
    15:00 +29°C° 0 mm 3 mps 753 mmHg 39%
    16:00 +29°C° 0 mm 3 mps 753 mmHg 38%
    17:00 +28°C° 0 mm 3 mps 753 mmHg 42%
    18:00 +27°C° 0 mm 3 mps 753 mmHg 45%
    19:00 +26°C° 0 mm 2 mps 753 mmHg 48%
    20:00 +25°C° 0 mm 2 mps 753 mmHg 52%
    21:00 +23°C° 0 mm 2 mps 753 mmHg 55%
    22:00 +20°C° 0 mm 2 mps 754 mmHg 59%
    23:00 +19°C° 0 mm 2 mps 754 mmHg 64%

    Day after tomorrow, 20 July, Friday

    Time Temperature Precipitation Wind Pressure Humidity
    00:00 +18°C° 0 mm 2 mps 754 mmHg 69%
    01:00 +17°C° 0 mm 2 mps 754 mmHg 74%
    02:00 +17°C° 0 mm 2 mps 755 mmHg 77%
    03:00 +16°C° 0 mm 2 mps 755 mmHg 80%
    04:00 +16°C° 0 mm 2 mps 755 mmHg 82%
    05:00 +17°C° 0 mm 2 mps 755 mmHg 76%
    06:00 +19°C° 0 mm 2 mps 755 mmHg 70%
    07:00 +20°C° 0 mm 2 mps 756 mmHg 64%
    08:00 +22°C° 0 mm 3 mps 756 mmHg 57%
    09:00 +24°C° 0 mm 3 mps 756 mmHg 51%
    10:00 +26°C° 0 mm 4 mps 756 mmHg 44%
    11:00 +27°C° 0 mm 4 mps 756 mmHg 41%
    12:00 +27°C° 0 mm 4 mps 756 mmHg 39%
    13:00 +28°C° 0 mm 4 mps 756 mmHg 37%
    14:00 +28°C° 0 mm 4 mps 756 mmHg 36%
    15:00 +28°C° 0 mm 4 mps 755 mmHg 36%
    16:00 +28°C° 0 mm 4 mps 755 mmHg 36%
    17:00 +28°C° 0 mm 3 mps 755 mmHg 40%
    18:00 +27°C° 0 mm 2 mps 755 mmHg 44%
    19:00 +26°C° 0 mm 2 mps 755 mmHg 48%
    20:00 +24°C° 0 mm 2 mps 756 mmHg 53%
    21:00 +21°C° 0 mm 2 mps 756 mmHg 59%
    22:00 +19°C° 0 mm 2 mps 756 mmHg 64%
    23:00 +18°C° 0 mm 2 mps 757 mmHg 66%

    21 July, Saturday

    Time Temperature Precipitation Wind Pressure Humidity
    00:00 +18°C° 0 mm 2 mps 757 mmHg 68%
    01:00 +17°C° 0 mm 2 mps 757 mmHg 70%
    02:00 +16°C° 0 mm 2 mps 757 mmHg 73%
    03:00 +15°C° 0 mm 2 mps 758 mmHg 76%
    04:00 +15°C° 0 mm 2 mps 758 mmHg 79%
    05:00 +16°C° 0 mm 2 mps 758 mmHg 73%
    06:00 +17°C° 0 mm 2 mps 758 mmHg 67%
    07:00 +19°C° 0 mm 3 mps 758 mmHg 61%
    08:00 +20°C° 0 mm 3 mps 758 mmHg 54%
    09:00 +22°C° 0 mm 3 mps 758 mmHg 48%
    10:00 +25°C° 0 mm 3 mps 758 mmHg 41%
    11:00 +25°C° 0 mm 3 mps 758 mmHg 39%
    12:00 +26°C° 0 mm 3 mps 758 mmHg 37%
    13:00 +27°C° 0 mm 3 mps 757 mmHg 34%
    14:00 +27°C° 0 mm 3 mps 757 mmHg 33%
    15:00 +28°C° 0 mm 3 mps 757 mmHg 32%
    16:00 +28°C° 0 mm 3 mps 757 mmHg 31%
    17:00 +27°C° 0 mm 3 mps 757 mmHg 35%
    18:00 +27°C° 0 mm 2 mps 757 mmHg 39%
    19:00 +26°C° 0 mm 2 mps 757 mmHg 43%
    20:00 +24°C° 0 mm 2 mps 757 mmHg 49%
    21:00 +20°C° 0 mm 2 mps 757 mmHg 55%
    22:00 +18°C° 0 mm 2 mps 757 mmHg 62%
    23:00 +17°C° 0 mm 2 mps 758 mmHg 64%

    22 July, Sunday

    Time Temperature Precipitation Wind Pressure Humidity
    00:00 +16°C° 0 mm 2 mps 758 mmHg 67%
    01:00 +15°C° 0 mm 2 mps 758 mmHg 70%
    02:00 +15°C° 0 mm 2 mps 758 mmHg 72%
    03:00 +14°C° 0 mm 2 mps 758 mmHg 74%
    04:00 +14°C° 0 mm 2 mps 759 mmHg 76%
    05:00 +15°C° 0 mm 2 mps 759 mmHg 69%
    06:00 +17°C° 0 mm 2 mps 759 mmHg 62%
    07:00 +18°C° 0 mm 2 mps 759 mmHg 55%
    08:00 +20°C° 0 mm 3 mps 759 mmHg 48%
    09:00 +21°C° 0 mm 3 mps 759 mmHg 41%
    10:00 +24°C° 0 mm 3 mps 758 mmHg 34%
    11:00 +25°C° 0 mm 3 mps 758 mmHg 32%
    12:00 +26°C° 0 mm 3 mps 758 mmHg 30%
    13:00 +27°C° 0 mm 3 mps 758 mmHg 28%
    14:00 +27°C° 0 mm 3 mps 757 mmHg 28%
    15:00 +27°C° 0 mm 3 mps 757 mmHg 27%
    16:00 +28°C° 0 mm 3 mps 757 mmHg 27%
    17:00 +27°C° 0 mm 2 mps 757 mmHg 32%
    18:00 +26°C° 0 mm 2 mps 756 mmHg 37%
    19:00 +25°C° 0 mm 1 mps 756 mmHg 41%
    20:00 +23°C° 0 mm 1 mps 756 mmHg 47%
    21:00 +21°C° 0 mm 1 mps 757 mmHg 53%
    22:00 +18°C° 0 mm 1 mps 757 mmHg 58%
    23:00 +16°C° 0 mm 1 mps 757 mmHg 61%

    23 July, Monday

    Time Temperature Precipitation Wind Pressure Humidity
    00:00 +16°C° 0 mm 1 mps 757 mmHg 63%
    01:00 +15°C° 0 mm 1 mps 758 mmHg 66%
    02:00 +14°C° 0 mm 1 mps 758 mmHg 68%
    03:00 +14°C° 0 mm 1 mps 758 mmHg 70%
    04:00 +13°C° 0 mm 1 mps 758 mmHg 72%
    05:00 +15°C° 0 mm 1 mps 758 mmHg 67%
    06:00 +18°C° 0 mm 1 mps 758 mmHg 61%
    07:00 +19°C° 0 mm 1 mps 758 mmHg 56%
    08:00 +20°C° 0 mm 2 mps 758 mmHg 49%
    09:00 +23°C° 0 mm 2 mps 758 mmHg 42%
    10:00 +25°C° 0 mm 2 mps 758 mmHg 36%
    11:00 +26°C° 0 mm 2 mps 758 mmHg 33%
    12:00 +27°C° 0 mm 2 mps 757 mmHg 31%
    13:00 +28°C° 0 mm 2 mps 757 mmHg 29%
    14:00 +28°C° 0 mm 2 mps 757 mmHg 28%
    15:00 +28°C° 0 mm 2 mps 756 mmHg 28%
    16:00 +29°C° 0 mm 2 mps 756 mmHg 28%
    17:00 +28°C° 0 mm 2 mps 756 mmHg 33%
    18:00 +27°C° 0 mm 2 mps 756 mmHg 38%
    19:00 +26°C° 0 mm 1 mps 756 mmHg 43%
    20:00 +24°C° 0 mm 1 mps 756 mmHg 49%
    21:00 +22°C° 0 mm 1 mps 756 mmHg 55%
    22:00 +19°C° 0 mm 1 mps 756 mmHg 61%
    23:00 +18°C° 0 mm 1 mps 756 mmHg 63%
    Show more